| time (UTC) | temp F | wind direction | speed knots | gust knots | rain 1hr in | rain 24hr in | rain mn in | humidity % | barometer mb |
| 20260906025325 | 61 | 0 | 0.0 | 0.0 | 0.00 | 0.02 | 0.00 | 87 | 1012.2 |
| 20260906024827 | 60 | 0 | 0.0 | 0.0 | 0.00 | 0.02 | 0.00 | 87 | 1012.3 |
| 20260906024326 | 60 | 0 | 0.0 | 0.0 | 0.00 | 0.02 | 0.00 | 87 | 1012.3 |
| 20260906023825 | 60 | 312 | 0.0 | 4.3 | 0.00 | 0.02 | 0.00 | 87 | 1012.2 |
| 20260906022825 | 61 | 330 | 1.7 | 4.3 | 0.00 | 0.02 | 0.00 | 87 | 1012.2 |
| 20260906022325 | 61 | 333 | 0.0 | 4.3 | 0.00 | 0.02 | 0.00 | 87 | 1012.2 |
| 20260906021825 | 61 | 308 | 0.0 | 4.3 | 0.00 | 0.02 | 0.00 | 87 | 1012.2 |
| 20260906020826 | 61 | 337 | 0.0 | 3.5 | 0.00 | 0.02 | 0.00 | 87 | 1012.2 |
| 20260906020325 | 61 | 333 | 0.9 | 3.5 | 0.00 | 0.02 | 0.00 | 87 | 1012.2 |
| 20260906015825 | 61 | 313 | 1.7 | 4.3 | 0.00 | 0.02 | 0.00 | 86 | 1012.2 |
| 20260906015325 | 61 | 294 | 1.7 | 4.3 | 0.00 | 0.02 | 0.00 | 86 | 1012.2 |
| 20260906014825 | 61 | 319 | 2.6 | 4.3 | 0.00 | 0.02 | 0.00 | 86 | 1012.2 |
| 20260906014326 | 62 | 331 | 2.6 | 4.3 | 0.00 | 0.02 | 0.00 | 86 | 1012.3 |
| 20260906013825 | 62 | 294 | 1.7 | 4.3 | 0.00 | 0.02 | 0.00 | 86 | 1012.3 |
| 20260906013325 | 62 | 296 | 2.6 | 4.3 | 0.00 | 0.02 | 0.00 | 86 | 1012.2 |
| 20260906012826 | 62 | 296 | 1.7 | 3.5 | 0.00 | 0.02 | 0.00 | 86 | 1012.2 |
| 20260906012325 | 62 | 344 | 0.9 | 3.5 | 0.00 | 0.02 | 0.00 | 86 | 1012.3 |
| 20260906011825 | 62 | 291 | 0.9 | 3.5 | 0.00 | 0.02 | 0.00 | 85 | 1012.2 |
| 20260906011326 | 62 | 284 | 1.7 | 3.5 | 0.00 | 0.02 | 0.00 | 86 | 1012.3 |
| 20260906010825 | 62 | 310 | 1.7 | 5.2 | 0.00 | 0.02 | 0.00 | 86 | 1012.3 |
| 20260906010329 | 62 | 337 | 0.9 | 5.2 | 0.00 | 0.02 | 0.00 | 86 | 1012.3 |
| 20260906005825 | 62 | 296 | 2.6 | 5.2 | 0.00 | 0.02 | 0.00 | 86 | 1012.2 |
| 20260906005325 | 62 | 327 | 3.5 | 4.3 | 0.00 | 0.02 | 0.00 | 87 | 1012.3 |
| 20260906004825 | 62 | 287 | 2.6 | 4.3 | 0.00 | 0.02 | 0.00 | 87 | 1012.3 |
| 20260906004326 | 62 | 305 | 2.6 | 4.3 | 0.00 | 0.02 | 0.00 | 87 | 1012.3 |
| 20260906003825 | 62 | 299 | 0.9 | 3.5 | 0.00 | 0.02 | 0.00 | 87 | 1012.2 |
| 20260906003325 | 62 | 306 | 1.7 | 3.5 | 0.00 | 0.02 | 0.00 | 87 | 1012.2 |
| 20260906002825 | 62 | 322 | 1.7 | 4.3 | 0.00 | 0.02 | 0.00 | 87 | 1012.2 |
| 20260906002325 | 62 | 331 | 2.6 | 4.3 | 0.00 | 0.02 | 0.00 | 87 | 1012.2 |
| 20260906001825 | 62 | 295 | 2.6 | 4.3 | 0.00 | 0.02 | 0.00 | 87 | 1012.2 |
| 20260906001326 | 62 | 282 | 2.6 | 3.5 | 0.00 | 0.02 | 0.00 | 87 | 1012.3 |
| 20260906000825 | 62 | 330 | 2.6 | 2.6 | 0.00 | 0.02 | 0.00 | 87 | 1012.2 |
| 20260906000326 | 62 | 277 | 0.9 | 2.6 | 0.00 | 0.02 | 0.00 | 87 | 1012.3 |
| 20260905235825 | 62 | 288 | 0.9 | 1.7 | 0.00 | 0.02 | 0.00 | 87 | 1012.3 |
| 20260905235325 | 62 | 263 | 0.9 | 5.2 | 0.00 | 0.02 | 0.00 | 87 | 1012.3 |
| 20260905234825 | 62 | 278 | 0.9 | 5.2 | 0.00 | 0.02 | 0.00 | 87 | 1012.3 |
| 20260905234326 | 63 | 294 | 2.6 | 5.2 | 0.00 | 0.02 | 0.00 | 87 | 1012.3 |
| 20260905233825 | 63 | 289 | 1.7 | 5.2 | 0.00 | 0.02 | 0.00 | 87 | 1012.3 |
| 20260905233325 | 63 | 275 | 2.6 | 5.2 | 0.00 | 0.02 | 0.00 | 87 | 1012.3 |
| 20260905232825 | 63 | 287 | 3.5 | 5.2 | 0.00 | 0.02 | 0.00 | 87 | 1012.3 |
| 20260905232325 | 63 | 281 | 3.5 | 5.2 | 0.00 | 0.02 | 0.00 | 86 | 1012.3 |
| 20260905231827 | 63 | 289 | 3.5 | 5.2 | 0.00 | 0.02 | 0.00 | 87 | 1012.3 |
| 20260905231327 | 63 | 287 | 2.6 | 5.2 | 0.00 | 0.02 | 0.00 | 87 | 1012.4 |
| 20260905230827 | 63 | 287 | 2.6 | 4.3 | 0.00 | 0.02 | 0.00 | 86 | 1012.4 |
| 20260905230325 | 63 | 299 | 2.6 | 5.2 | 0.00 | 0.02 | 0.00 | 87 | 1012.3 |
| 20260905225825 | 63 | 295 | 1.7 | 5.2 | 0.00 | 0.19 | 0.00 | 86 | 1012.3 |
| 20260905225325 | 64 | 315 | 3.5 | 5.2 | 0.00 | 0.19 | 0.00 | 86 | 1012.4 |
| 20260905224825 | 64 | 317 | 2.6 | 5.2 | 0.00 | 0.19 | 0.00 | 86 | 1012.4 |
| 20260905224326 | 64 | 313 | 3.5 | 5.2 | 0.00 | 0.19 | 0.00 | 86 | 1012.4 |
| 20260905223825 | 64 | 303 | 2.6 | 4.3 | 0.00 | 0.19 | 0.00 | 86 | 1012.5 |
| 20260905223325 | 64 | 256 | 1.7 | 6.1 | 0.00 | 0.19 | 0.00 | 86 | 1012.6 |
| 20260905222825 | 64 | 257 | 1.7 | 6.1 | 0.00 | 0.19 | 0.00 | 87 | 1012.6 |
| 20260905222325 | 63 | 308 | 2.6 | 6.1 | 0.00 | 0.19 | 0.00 | 87 | 1012.7 |
| 20260905221825 | 63 | 271 | 3.5 | 5.2 | 0.00 | 0.19 | 0.00 | 86 | 1012.8 |
| 20260905221326 | 63 | 294 | 0.9 | 4.3 | 0.00 | 0.19 | 0.00 | 87 | 1012.9 |
| 20260905220825 | 63 | 287 | 2.6 | 4.3 | 0.00 | 0.19 | 0.00 | 87 | 1012.9 |
| 20260905220325 | 63 | 305 | 0.9 | 4.3 | 0.00 | 0.19 | 0.00 | 88 | 1013.0 |
| 20260905215825 | 63 | 289 | 1.7 | 4.3 | 0.00 | 0.41 | 0.00 | 88 | 1013.0 |
| 20260905214825 | 63 | 284 | 0.9 | 3.5 | 0.00 | 0.41 | 0.00 | 87 | 1013.0 |
| 20260905214326 | 63 | 273 | 1.7 | 4.3 | 0.00 | 0.41 | 0.00 | 87 | 1013.0 |
| 20260905213825 | 63 | 235 | 1.7 | 4.3 | 0.00 | 0.41 | 0.00 | 87 | 1013.1 |
| 20260905213325 | 63 | 280 | 1.7 | 4.3 | 0.00 | 0.41 | 0.00 | 88 | 1013.1 |
| 20260905212825 | 63 | 217 | 0.9 | 6.1 | 0.00 | 0.41 | 0.00 | 87 | 1013.1 |
| 20260905212325 | 63 | 278 | 2.6 | 6.1 | 0.00 | 0.41 | 0.00 | 88 | 1013.2 |
| 20260905211825 | 63 | 288 | 1.7 | 6.1 | 0.00 | 0.41 | 0.00 | 88 | 1013.2 |
| 20260905211326 | 63 | 301 | 0.9 | 4.3 | 0.00 | 0.41 | 0.00 | 88 | 1013.1 |
| 20260905210825 | 63 | 319 | 0.9 | 4.3 | 0.00 | 0.41 | 0.00 | 87 | 1013.2 |
| 20260905210359 | 63 | 281 | 0.9 | 4.3 | 0.00 | 0.41 | 0.00 | 87 | 1013.2 |
| 20260905210325 | 63 | 281 | 0.9 | 4.3 | 0.00 | 0.41 | 0.00 | 87 | 1013.2 |
| 20260905205825 | 63 | 296 | 1.7 | 4.3 | 0.00 | 0.41 | 0.00 | 87 | 1013.2 |
| 20260905205325 | 64 | 305 | 0.9 | 4.3 | 0.00 | 0.41 | 0.00 | 87 | 1013.2 |
| 20260905204825 | 64 | 270 | 1.7 | 4.3 | 0.00 | 0.41 | 0.00 | 86 | 1013.3 |
| 20260905203825 | 65 | 267 | 1.7 | 5.2 | 0.00 | 0.41 | 0.00 | 88 | 1013.2 |
| 20260905203325 | 65 | 294 | 1.7 | 5.2 | 0.00 | 0.41 | 0.00 | 87 | 1013.2 |
| 20260905202825 | 65 | 243 | 1.7 | 5.2 | 0.00 | 0.41 | 0.00 | 88 | 1013.1 |
| 20260905202325 | 64 | 302 | 0.9 | 5.2 | 0.00 | 0.41 | 0.00 | 88 | 1013.2 |
| 20260905201825 | 65 | 256 | 1.7 | 4.3 | 0.00 | 0.41 | 0.00 | 88 | 1013.1 |
| 20260905201326 | 65 | 333 | 0.0 | 4.3 | 0.00 | 0.41 | 0.00 | 88 | 1013.1 |
| 20260905200825 | 64 | 210 | 1.7 | 4.3 | 0.00 | 0.41 | 0.00 | 90 | 1013.1 |
| 20260905200326 | 63 | 303 | 2.6 | 3.5 | 0.00 | 0.41 | 0.00 | 90 | 1013.1 |
| 20260905195825 | 63 | 301 | 0.0 | 2.6 | 0.00 | 0.41 | 0.00 | 90 | 1013.1 |
| 20260905195325 | 62 | 280 | 0.0 | 5.2 | 0.00 | 0.41 | 0.00 | 89 | 1013.1 |
| 20260905194825 | 62 | 273 | 0.0 | 5.2 | 0.00 | 0.41 | 0.00 | 89 | 1013.1 |
| 20260905194326 | 62 | 235 | 0.0 | 5.2 | 0.00 | 0.41 | 0.00 | 89 | 1013.1 |
| 20260905193825 | 62 | 291 | 0.9 | 5.2 | 0.00 | 0.41 | 0.00 | 90 | 1013.1 |
| 20260905193325 | 62 | 194 | 1.7 | 5.2 | 0.00 | 0.41 | 0.00 | 90 | 1013.1 |
| 20260905192825 | 62 | 218 | 2.6 | 5.2 | 0.00 | 0.41 | 0.00 | 89 | 1013.2 |
| 20260905192325 | 62 | 247 | 3.5 | 4.3 | 0.00 | 0.41 | 0.00 | 90 | 1013.1 |
| 20260905191825 | 61 | 268 | 0.9 | 4.3 | 0.00 | 0.41 | 0.00 | 90 | 1013.1 |
| 20260905191326 | 61 | 252 | 2.6 | 4.3 | 0.00 | 0.41 | 0.00 | 90 | 1013.2 |
| 20260905190825 | 61 | 196 | 0.9 | 4.3 | 0.00 | 0.41 | 0.00 | 89 | 1013.2 |
| 20260905190325 | 62 | 261 | 0.9 | 7.0 | 0.00 | 0.41 | 0.00 | 89 | 1013.1 |
| 20260905185825 | 62 | 252 | 2.6 | 7.0 | 0.00 | 0.41 | 0.00 | 89 | 1013.1 |
| 20260905185325 | 63 | 257 | 1.7 | 7.0 | 0.00 | 0.41 | 0.00 | 88 | 1013.1 |
| 20260905184825 | 64 | 247 | 2.6 | 5.2 | 0.00 | 0.41 | 0.00 | 88 | 1013.1 |
| 20260905184326 | 64 | 239 | 1.7 | 5.2 | 0.00 | 0.41 | 0.00 | 89 | 1013.1 |
| 20260905183825 | 64 | 231 | 3.5 | 5.2 | 0.00 | 0.41 | 0.00 | 90 | 1013.0 |
| 20260905183325 | 64 | 254 | 1.7 | 4.3 | 0.00 | 0.41 | 0.00 | 90 | 1013.0 |
| 20260905182825 | 64 | 271 | 2.6 | 4.3 | 0.00 | 0.41 | 0.00 | 90 | 1013.0 |
| 20260905182325 | 63 | 271 | 1.7 | 4.3 | 0.00 | 0.41 | 0.00 | 92 | 1012.9 |
| 20260905181825 | 62 | 250 | 0.0 | 4.3 | 0.00 | 0.41 | 0.00 | 92 | 1012.9 |
| 20260905181326 | 61 | 226 | 0.9 | 3.5 | 0.00 | 0.41 | 0.00 | 92 | 1012.9 |
| 20260905180825 | 61 | 236 | 0.9 | 4.3 | 0.00 | 0.41 | 0.00 | 91 | 1012.9 |
| 20260905180325 | 61 | 198 | 0.0 | 4.3 | 0.00 | 0.41 | 0.00 | 91 | 1012.9 |
| 20260905175825 | 61 | 233 | 0.9 | 4.3 | 0.00 | 0.41 | 0.00 | 91 | 1013.0 |
| 20260905175325 | 61 | 217 | 2.6 | 3.5 | 0.00 | 0.41 | 0.00 | 91 | 1013.0 |
| 20260905174825 | 61 | 261 | 0.9 | 3.5 | 0.00 | 0.41 | 0.00 | 91 | 1012.9 |
| 20260905174326 | 61 | 256 | 1.7 | 3.5 | 0.00 | 0.41 | 0.00 | 92 | 1013.0 |
| 20260905173825 | 61 | 257 | 1.7 | 3.5 | 0.00 | 0.41 | 0.00 | 92 | 1013.0 |
| 20260905173325 | 61 | 238 | 1.7 | 3.5 | 0.00 | 0.41 | 0.00 | 92 | 1012.9 |
| 20260905172325 | 60 | 277 | 0.9 | 2.6 | 0.00 | 0.41 | 0.00 | 92 | 1012.9 |
| 20260905171825 | 60 | 280 | 0.0 | 1.7 | 0.00 | 0.41 | 0.00 | 92 | 1012.8 |
| 20260905171326 | 60 | 278 | 0.0 | 1.7 | 0.00 | 0.41 | 0.00 | 92 | 1012.8 |
| 20260905170825 | 59 | 292 | 0.0 | 0.9 | 0.00 | 0.41 | 0.00 | 92 | 1012.8 |
| 20260905165825 | 60 | 194 | 0.9 | 3.5 | 0.00 | 0.41 | 0.00 | 91 | 1012.7 |
| 20260905165325 | 60 | 226 | 0.9 | 3.5 | 0.00 | 0.41 | 0.00 | 92 | 1012.7 |
| 20260905164825 | 61 | 211 | 2.6 | 2.6 | 0.00 | 0.41 | 0.00 | 92 | 1012.7 |
| 20260905164326 | 61 | 260 | 0.0 | 1.7 | 0.00 | 0.41 | 0.00 | 92 | 1012.6 |
| 20260905163825 | 61 | 238 | 0.0 | 1.7 | 0.00 | 0.41 | 0.00 | 92 | 1012.6 |
| 20260905163325 | 60 | 267 | 0.9 | 0.9 | 0.00 | 0.41 | 0.00 | 93 | 1012.6 |
| 20260905162825 | 59 | 117 | 0.0 | 0.9 | 0.00 | 0.41 | 0.00 | 92 | 1012.6 |
| 20260905162325 | 59 | 172 | 0.0 | 0.9 | 0.00 | 0.41 | 0.00 | 93 | 1012.6 |
| 20260905161825 | 58 | 0 | 0.0 | 2.6 | 0.00 | 0.41 | 0.00 | 92 | 1012.7 |
| 20260905161326 | 58 | 105 | 0.0 | 2.6 | 0.00 | 0.41 | 0.00 | 92 | 1012.6 |
| 20260905160825 | 58 | 109 | 0.9 | 2.6 | 0.00 | 0.41 | 0.00 | 92 | 1012.6 |
| 20260905160325 | 58 | 102 | 0.9 | 1.7 | 0.00 | 0.41 | 0.00 | 92 | 1012.7 |
| 20260905155825 | 58 | 112 | 0.0 | 1.7 | 0.00 | 0.41 | 0.00 | 92 | 1012.7 |
| 20260905155325 | 58 | 92 | 0.9 | 1.7 | 0.00 | 0.41 | 0.00 | 92 | 1012.6 |
| 20260905154825 | 58 | 92 | 1.7 | 1.7 | 0.00 | 0.41 | 0.00 | 92 | 1012.7 |
| 20260905154326 | 58 | 100 | 0.0 | 1.7 | 0.00 | 0.41 | 0.00 | 92 | 1012.7 |
| 20260905153825 | 58 | 96 | 0.0 | 3.5 | 0.00 | 0.41 | 0.00 | 92 | 1012.8 |
| 20260905153325 | 58 | 106 | 0.9 | 3.5 | 0.00 | 0.41 | 0.00 | 92 | 1012.7 |
| 20260905152920 | 58 | 49 | 1.7 | 3.5 | 0.00 | 0.41 | 0.00 | 92 | 1012.8 |
| 20260905152825 | 58 | 49 | 1.7 | 3.5 | 0.00 | 0.41 | 0.00 | 92 | 1012.8 |
| 20260905152325 | 57 | 98 | 0.9 | 2.6 | 0.00 | 0.41 | 0.00 | 92 | 1012.8 |
| 20260905151825 | 57 | 114 | 0.9 | 2.6 | 0.00 | 0.41 | 0.00 | 92 | 1012.7 |
| 20260905151326 | 57 | 110 | 0.0 | 1.7 | 0.00 | 0.41 | 0.00 | 92 | 1012.7 |
| 20260905150825 | 57 | 110 | 0.0 | 1.7 | 0.00 | 0.41 | 0.00 | 92 | 1012.7 |
| 20260905150325 | 57 | 128 | 0.0 | 1.7 | 0.00 | 0.41 | 0.00 | 92 | 1012.6 |
| 20260905145825 | 57 | 106 | 0.0 | 1.7 | 0.00 | 0.41 | 0.00 | 92 | 1012.6 |
| 20260905145325 | 57 | 84 | 0.9 | 0.9 | 0.00 | 0.41 | 0.00 | 92 | 1012.6 |
| 20260905144825 | 57 | 177 | 0.0 | 0.9 | 0.00 | 0.41 | 0.00 | 92 | 1012.6 |
| 20260905144326 | 57 | 201 | 0.0 | 0.9 | 0.00 | 0.41 | 0.00 | 92 | 1012.6 |
| 20260905143825 | 57 | 176 | 0.0 | 2.6 | 0.00 | 0.41 | 0.00 | 92 | 1012.6 |
| 20260905143325 | 57 | 179 | 0.9 | 2.6 | 0.00 | 0.41 | 0.00 | 92 | 1012.6 |
| 20260905142825 | 57 | 191 | 0.0 | 2.6 | 0.00 | 0.41 | 0.00 | 92 | 1012.5 |
| 20260905142325 | 57 | 207 | 0.9 | 0.9 | 0.00 | 0.41 | 0.00 | 92 | 1012.6 |
| 20260905141825 | 57 | 0 | 0.0 | 0.0 | 0.00 | 0.41 | 0.00 | 92 | 1012.5 |
| 20260905141326 | 56 | 0 | 0.0 | 0.0 | 0.00 | 0.41 | 0.00 | 92 | 1012.5 |
| 20260905140825 | 56 | 102 | 0.0 | 0.0 | 0.00 | 0.41 | 0.00 | 92 | 1012.4 |
| 20260905140325 | 56 | 117 | 0.0 | 1.7 | 0.00 | 0.41 | 0.00 | 92 | 1012.5 |
| 20260905135825 | 56 | 105 | 0.9 | 1.7 | 0.00 | 0.42 | 0.00 | 92 | 1012.4 |
| 20260905135325 | 56 | 86 | 0.9 | 1.7 | 0.00 | 0.42 | 0.00 | 92 | 1012.4 |
| 20260905134825 | 56 | 102 | 0.9 | 1.7 | 0.00 | 0.42 | 0.00 | 92 | 1012.3 |
| 20260905134326 | 56 | 103 | 0.0 | 2.6 | 0.00 | 0.42 | 0.00 | 92 | 1012.2 |
| 20260905133825 | 56 | 105 | 0.9 | 2.6 | 0.00 | 0.42 | 0.00 | 92 | 1012.2 |
| 20260905133325 | 56 | 105 | 0.9 | 2.6 | 0.00 | 0.42 | 0.00 | 92 | 1012.2 |
| 20260905132825 | 56 | 130 | 1.7 | 1.7 | 0.00 | 0.42 | 0.00 | 92 | 1012.2 |
| 20260905132325 | 56 | 85 | 0.0 | 0.0 | 0.00 | 0.42 | 0.00 | 92 | 1012.2 |
| 20260905131825 | 56 | 103 | 0.0 | 0.0 | 0.00 | 0.42 | 0.00 | 92 | 1012.2 |
| 20260905131326 | 56 | 117 | 0.0 | 2.6 | 0.00 | 0.42 | 0.00 | 92 | 1012.2 |
| 20260905130825 | 56 | 99 | 0.0 | 2.6 | 0.00 | 0.42 | 0.00 | 92 | 1012.2 |
| 20260905130325 | 56 | 102 | 0.0 | 2.6 | 0.00 | 0.42 | 0.00 | 92 | 1012.1 |
| 20260905125825 | 56 | 84 | 1.7 | 1.7 | 0.00 | 0.42 | 0.00 | 92 | 1012.1 |
| 20260905125325 | 56 | 100 | 0.0 | 1.7 | 0.00 | 0.42 | 0.00 | 92 | 1012.1 |
| 20260905124919 | 56 | 106 | 0.0 | 1.7 | 0.00 | 0.42 | 0.00 | 92 | 1012.1 |
| 20260905124825 | 56 | 106 | 0.0 | 1.7 | 0.00 | 0.42 | 0.00 | 92 | 1012.1 |
| 20260905124326 | 56 | 82 | 0.0 | 0.9 | 0.00 | 0.42 | 0.00 | 92 | 1012.1 |
| 20260905123825 | 56 | 110 | 0.0 | 2.6 | 0.00 | 0.42 | 0.00 | 92 | 1012.0 |
| 20260905123325 | 56 | 95 | 0.9 | 2.6 | 0.00 | 0.42 | 0.00 | 92 | 1012.0 |
| 20260905122825 | 56 | 100 | 0.9 | 2.6 | 0.00 | 0.42 | 0.00 | 92 | 1012.0 |
| 20260905122325 | 56 | 98 | 0.0 | 1.7 | 0.00 | 0.42 | 0.00 | 92 | 1012.0 |
| 20260905121825 | 56 | 84 | 0.9 | 2.6 | 0.00 | 0.42 | 0.00 | 92 | 1012.0 |
| 20260905121326 | 56 | 109 | 0.9 | 2.6 | 0.00 | 0.42 | 0.00 | 92 | 1012.0 |
| 20260905120825 | 56 | 102 | 0.9 | 2.6 | 0.00 | 0.42 | 0.00 | 92 | 1011.9 |
| 20260905120325 | 56 | 0 | 1.7 | 1.7 | 0.00 | 0.42 | 0.00 | 92 | 1011.9 |
| 20260905115825 | 56 | 102 | 0.0 | 1.7 | 0.00 | 0.42 | 0.00 | 92 | 1011.9 |
| 20260905115325 | 56 | 0 | 0.9 | 0.9 | 0.00 | 0.42 | 0.00 | 92 | 1011.9 |
| 20260905114825 | 56 | 105 | 0.0 | 1.7 | 0.00 | 0.42 | 0.00 | 91 | 1012.0 |
| 20260905114326 | 56 | 0 | 0.0 | 1.7 | 0.00 | 0.42 | 0.00 | 91 | 1011.9 |
| 20260905113825 | 56 | 134 | 0.0 | 1.7 | 0.00 | 0.42 | 0.00 | 91 | 1011.9 |
| 20260905113325 | 56 | 113 | 0.0 | 0.9 | 0.00 | 0.42 | 0.00 | 91 | 1011.8 |
| 20260905112825 | 56 | 92 | 0.0 | 0.9 | 0.00 | 0.42 | 0.00 | 91 | 1011.7 |
| 20260905112325 | 57 | 168 | 0.0 | 0.9 | 0.00 | 0.42 | 0.00 | 92 | 1011.8 |
| 20260905111825 | 57 | 0 | 0.0 | 1.7 | 0.00 | 0.42 | 0.00 | 92 | 1011.8 |
| 20260905111326 | 57 | 75 | 0.0 | 1.7 | 0.00 | 0.42 | 0.00 | 92 | 1011.8 |
| 20260905110825 | 57 | 86 | 0.0 | 1.7 | 0.00 | 0.42 | 0.00 | 92 | 1011.8 |
| 20260905110325 | 57 | 78 | 0.0 | 0.9 | 0.00 | 0.42 | 0.00 | 92 | 1011.8 |
| 20260905105825 | 57 | 0 | 0.0 | 0.0 | 0.00 | 0.42 | 0.00 | 92 | 1011.9 |
| 20260905105325 | 57 | 0 | 0.0 | 0.0 | 0.00 | 0.42 | 0.00 | 92 | 1011.9 |
| 20260905104825 | 57 | 0 | 0.0 | 0.0 | 0.00 | 0.42 | 0.00 | 92 | 1011.9 |
| 20260905104326 | 56 | 0 | 0.0 | 0.0 | 0.00 | 0.42 | 0.00 | 92 | 1011.9 |
| 20260905103825 | 56 | 0 | 0.0 | 0.0 | 0.00 | 0.42 | 0.00 | 92 | 1011.9 |
| 20260905103325 | 57 | 0 | 0.0 | 0.0 | 0.00 | 0.42 | 0.00 | 91 | 1011.9 |
| 20260905102825 | 57 | 0 | 0.0 | 1.7 | 0.00 | 0.42 | 0.00 | 91 | 1011.9 |
| 20260905102325 | 57 | 98 | 0.0 | 1.7 | 0.00 | 0.42 | 0.00 | 91 | 1011.9 |
| 20260905101825 | 57 | 98 | 0.0 | 1.7 | 0.00 | 0.42 | 0.00 | 91 | 1011.9 |
| 20260905101326 | 57 | 138 | 0.0 | 0.9 | 0.00 | 0.42 | 0.00 | 92 | 1011.9 |
| 20260905100825 | 57 | 151 | 0.0 | 0.0 | 0.00 | 0.42 | 0.00 | 92 | 1011.9 |
| 20260905100325 | 57 | 198 | 0.0 | 2.6 | 0.00 | 0.42 | 0.00 | 92 | 1011.9 |
| 20260905095825 | 56 | 107 | 0.0 | 2.6 | 0.00 | 0.42 | 0.00 | 92 | 1011.9 |
| 20260905095325 | 56 | 112 | 0.0 | 2.6 | 0.00 | 0.42 | 0.00 | 92 | 1011.9 |
| 20260905094829 | 0 | 91 | 0.0 | 2.6 | 0.00 | 0.42 | 0.00 | 92 | 1011.9 |
| 20260905094825 | 56 | 91 | 0.0 | 2.6 | 0.00 | 0.42 | 0.00 | 92 | 1011.9 |
| 20260905094326 | 56 | 91 | 0.9 | 1.7 | 0.00 | 0.42 | 0.00 | 92 | 1011.9 |
| 20260905093825 | 56 | 89 | 0.9 | 1.7 | 0.00 | 0.42 | 0.00 | 92 | 1011.9 |
| 20260905093325 | 56 | 106 | 0.0 | 1.7 | 0.00 | 0.42 | 0.00 | 92 | 1011.8 |
| 20260905092825 | 56 | 75 | 0.9 | 0.9 | 0.00 | 0.42 | 0.00 | 92 | 1011.8 |
| 20260905092325 | 55 | 98 | 0.0 | 1.7 | 0.00 | 0.42 | 0.00 | 92 | 1011.8 |
| 20260905091825 | 55 | 0 | 0.0 | 1.7 | 0.00 | 0.42 | 0.00 | 92 | 1011.8 |
| 20260905091326 | 55 | 100 | 0.0 | 1.7 | 0.00 | 0.42 | 0.00 | 92 | 1011.8 |
| 20260905090825 | 55 | 0 | 0.0 | 0.9 | 0.00 | 0.42 | 0.00 | 91 | 1011.7 |
| 20260905085825 | 55 | 102 | 0.0 | 0.9 | 0.00 | 0.42 | 0.00 | 91 | 1011.8 |
| 20260905085325 | 54 | 0 | 0.0 | 0.0 | 0.00 | 0.42 | 0.00 | 91 | 1011.7 |
| 20260905084825 | 55 | 0 | 0.0 | 0.0 | 0.00 | 0.42 | 0.00 | 91 | 1011.7 |
| 20260905084326 | 54 | 0 | 0.0 | 0.0 | 0.00 | 0.42 | 0.00 | 91 | 1011.6 |
| 20260905083825 | 54 | 96 | 0.0 | 0.9 | 0.00 | 0.42 | 0.00 | 91 | 1011.6 |
| 20260905082825 | 54 | 85 | 0.0 | 0.9 | 0.00 | 0.42 | 0.00 | 91 | 1011.5 |
| 20260905082325 | 54 | 0 | 0.0 | 0.0 | 0.00 | 0.42 | 0.00 | 91 | 1011.5 |
| 20260905081825 | 55 | 0 | 0.0 | 0.0 | 0.00 | 0.42 | 0.00 | 91 | 1011.5 |
| 20260905081326 | 55 | 0 | 0.0 | 0.0 | 0.00 | 0.42 | 0.00 | 91 | 1011.5 |
| 20260905080825 | 55 | 0 | 0.0 | 0.0 | 0.00 | 0.42 | 0.00 | 91 | 1011.4 |
| 20260905080325 | 55 | 0 | 0.0 | 0.0 | 0.00 | 0.42 | 0.00 | 91 | 1011.4 |
| 20260905075825 | 55 | 0 | 0.0 | 0.0 | 0.00 | 0.43 | 0.00 | 91 | 1011.4 |
| 20260905075325 | 55 | 0 | 0.0 | 0.0 | 0.00 | 0.43 | 0.00 | 91 | 1011.4 |
| 20260905075007 | 56 | 0 | 0.0 | 0.0 | 0.00 | 0.43 | 0.00 | 91 | 1011.4 |
| 20260905074825 | 56 | 0 | 0.0 | 0.0 | 0.00 | 0.43 | 0.00 | 91 | 1011.4 |
| 20260905074326 | 56 | 0 | 0.0 | 0.0 | 0.00 | 0.43 | 0.00 | 91 | 1011.3 |
| 20260905073825 | 56 | 0 | 0.0 | 0.0 | 0.00 | 0.43 | 0.00 | 91 | 1011.4 |
| 20260905073325 | 56 | 0 | 0.0 | 0.0 | 0.00 | 0.43 | 0.00 | 91 | 1011.4 |
| 20260905072825 | 56 | 0 | 0.0 | 0.0 | 0.00 | 0.43 | 0.00 | 91 | 1011.3 |
| 20260905072325 | 56 | 0 | 0.0 | 0.0 | 0.00 | 0.43 | 0.00 | 91 | 1011.3 |
| 20260905071825 | 57 | 0 | 0.0 | 0.0 | 0.00 | 0.43 | 0.00 | 91 | 1011.2 |
| 20260905071326 | 57 | 85 | 0.0 | 1.7 | 0.00 | 0.43 | 0.00 | 91 | 1011.1 |
| 20260905070825 | 57 | 124 | 0.0 | 1.7 | 0.00 | 0.43 | 0.00 | 91 | 1011.1 |
| 20260905070325 | 57 | 170 | 0.0 | 1.7 | 0.00 | 0.43 | 0.00 | 91 | 1011.1 |
| 20260905065325 | 58 | 243 | 0.0 | 2.6 | 0.00 | 0.43 | 0.43 | 91 | 1011.1 |
| 20260905064825 | 58 | 184 | 0.0 | 2.6 | 0.00 | 0.43 | 0.43 | 91 | 1011.1 |
| 20260905064326 | 58 | 193 | 0.0 | 2.6 | 0.00 | 0.43 | 0.43 | 91 | 1011.1 |
| 20260905063825 | 58 | 170 | 0.9 | 2.6 | 0.00 | 0.43 | 0.43 | 91 | 1011.0 |
| 20260905063325 | 58 | 196 | 0.9 | 2.6 | 0.00 | 0.43 | 0.43 | 91 | 1010.9 |
| 20260905062831 | 58 | 191 | 0.9 | 1.7 | 0.00 | 0.43 | 0.43 | 91 | 1010.9 |
| 20260905062825 | 58 | 191 | 0.9 | 1.7 | 0.00 | 0.43 | 0.43 | 91 | 1010.9 |
| 20260905062325 | 58 | 172 | 0.0 | 1.7 | 0.00 | 0.43 | 0.43 | 91 | 1010.9 |
| 20260905061825 | 58 | 233 | 0.0 | 0.9 | 0.00 | 0.43 | 0.43 | 91 | 1010.9 |
| 20260905061326 | 58 | 0 | 0.0 | 0.0 | 0.00 | 0.43 | 0.43 | 91 | 1010.9 |
| 20260905060825 | 58 | 194 | 0.0 | 1.7 | 0.00 | 0.43 | 0.43 | 91 | 1010.8 |
| 20260905060325 | 58 | 177 | 0.0 | 1.7 | 0.00 | 0.43 | 0.43 | 91 | 1010.9 |
| 20260905055825 | 58 | 183 | 0.0 | 1.7 | 0.00 | 0.43 | 0.43 | 91 | 1010.8 |
| 20260905055325 | 58 | 0 | 0.0 | 0.0 | 0.00 | 0.43 | 0.43 | 91 | 1010.9 |
| 20260905054825 | 58 | 0 | 0.0 | 0.0 | 0.00 | 0.43 | 0.43 | 91 | 1010.9 |
| 20260905054326 | 58 | 0 | 0.0 | 0.0 | 0.00 | 0.43 | 0.43 | 91 | 1011.0 |
| 20260905053825 | 58 | 0 | 0.0 | 0.0 | 0.00 | 0.43 | 0.43 | 91 | 1010.9 |
| 20260905053325 | 58 | 0 | 0.0 | 2.6 | 0.00 | 0.43 | 0.43 | 91 | 1011.0 |
| 20260905052825 | 58 | 0 | 0.0 | 2.6 | 0.00 | 0.43 | 0.43 | 91 | 1011.0 |
| 20260905052325 | 58 | 109 | 0.0 | 2.6 | 0.00 | 0.43 | 0.43 | 91 | 1011.0 |
| 20260905051825 | 58 | 112 | 0.0 | 3.5 | 0.00 | 0.43 | 0.43 | 91 | 1011.0 |
| 20260905051326 | 58 | 113 | 0.9 | 3.5 | 0.00 | 0.43 | 0.43 | 91 | 1011.0 |
| 20260905050825 | 58 | 102 | 0.9 | 3.5 | 0.00 | 0.43 | 0.43 | 91 | 1010.9 |
| 20260905050325 | 58 | 109 | 1.7 | 4.3 | 0.00 | 0.43 | 0.43 | 91 | 1010.9 |
| 20260905045825 | 58 | 107 | 0.9 | 4.3 | 0.00 | 0.62 | 0.43 | 91 | 1010.9 |
| 20260905045326 | 57 | 110 | 2.6 | 4.3 | 0.00 | 0.62 | 0.43 | 91 | 1010.8 |
| 20260905044825 | 57 | 102 | 3.5 | 3.5 | 0.00 | 0.62 | 0.43 | 91 | 1010.9 |
| 20260905044326 | 58 | 107 | 1.7 | 2.6 | 0.00 | 0.62 | 0.43 | 91 | 1010.9 |
| 20260905043825 | 58 | 0 | 1.7 | 1.7 | 0.00 | 0.62 | 0.43 | 91 | 1010.9 |
| 20260905043325 | 58 | 0 | 0.0 | 0.9 | 0.00 | 0.62 | 0.43 | 91 | 1010.9 |
| 20260905042825 | 58 | 0 | 0.0 | 0.9 | 0.01 | 0.62 | 0.43 | 90 | 1010.8 |
| 20260905042325 | 58 | 71 | 0.0 | 0.9 | 0.01 | 0.62 | 0.43 | 90 | 1010.8 |
| 20260905041825 | 58 | 60 | 0.9 | 1.7 | 0.01 | 0.62 | 0.43 | 90 | 1010.8 |
| 20260905041326 | 58 | 63 | 0.0 | 1.7 | 0.01 | 0.62 | 0.43 | 90 | 1010.7 |
| 20260905040825 | 58 | 93 | 0.0 | 1.7 | 0.01 | 0.62 | 0.43 | 90 | 1010.5 |
| 20260905040325 | 58 | 0 | 1.7 | 1.7 | 0.01 | 0.62 | 0.43 | 90 | 1010.4 |
| 20260905035825 | 58 | 99 | 0.0 | 1.7 | 0.01 | 0.64 | 0.43 | 90 | 1010.5 |
| 20260905035325 | 58 | 102 | 0.0 | 1.7 | 0.01 | 0.64 | 0.43 | 90 | 1010.5 |
| 20260905034825 | 59 | 0 | 1.7 | 1.7 | 0.01 | 0.64 | 0.43 | 90 | 1010.4 |
| 20260905034326 | 59 | 0 | 0.0 | 0.0 | 0.01 | 0.64 | 0.43 | 90 | 1010.3 |
| 20260905033825 | 59 | 0 | 0.0 | 1.7 | 0.01 | 0.64 | 0.43 | 90 | 1010.2 |
| 20260905033325 | 59 | 0 | 0.0 | 1.7 | 0.01 | 0.64 | 0.43 | 90 | 1010.2 |
| 20260905032825 | 59 | 109 | 0.0 | 1.7 | 0.00 | 0.64 | 0.43 | 90 | 1010.1 |
| 20260905032325 | 59 | 0 | 0.9 | 0.9 | 0.00 | 0.64 | 0.43 | 90 | 1010.0 |
| 20260905031825 | 59 | 0 | 0.0 | 0.0 | 0.00 | 0.64 | 0.42 | 90 | 1010.1 |
| 20260905031326 | 60 | 0 | 0.0 | 0.0 | 0.00 | 0.64 | 0.42 | 90 | 1010.0 |
| 20260905030825 | 60 | 0 | 0.0 | 0.0 | 0.01 | 0.64 | 0.42 | 90 | 1010.0 |
| 20260905030325 | 60 | 0 | 0.0 | 0.0 | 0.01 | 0.64 | 0.42 | 90 | 1010.0 |
| 20260905025826 | 60 | 0 | 0.0 | 0.9 | 0.01 | 0.71 | 0.42 | 90 | 1010.0 |